When you browse on this site, cookies collect data to enhance your experience and personalize the content and advertising you see.
Visit our Privacy Policy to learn more. By continuing to use the site, you agree to this use of cookies and data.
  • în România
  • Lista ţărilor
  • Pe 7 zile
  • Temperatura apei
  • Hartă satelitară
  • Meteo pe hartă
  • Widget-uri
  • user-avatar
    Intrare

    Meteo pe oră la Naftalan

    Astăzi, 25 Iunie, Marţi

    Timp Temperatura Precipitaţii Vânt Presiune Umiditate
    00:00 +29°C° 0 mm 2 m/s 760 mmHg 51%
    01:00 +29°C° 0 mm 2 m/s 759 mmHg 51%
    02:00 +28°C° 0 mm 2 m/s 759 mmHg 51%
    03:00 +28°C° 0 mm 2 m/s 759 mmHg 55%
    04:00 +28°C° 0 mm 2 m/s 759 mmHg 52%
    05:00 +29°C° 0 mm 3 m/s 759 mmHg 50%
    06:00 +30°C° 0 mm 3 m/s 760 mmHg 47%
    07:00 +33°C° 0 mm 4 m/s 760 mmHg 44%
    08:00 +34°C° 0 mm 4 m/s 760 mmHg 40%
    09:00 +36°C° 0 mm 5 m/s 760 mmHg 37%
    10:00 +36°C° 0 mm 5 m/s 760 mmHg 36%
    11:00 +37°C° 0 mm 5 m/s 760 mmHg 36%
    12:00 +38°C° 0 mm 6 m/s 760 mmHg 36%
    13:00 +38°C° 0 mm 6 m/s 760 mmHg 35%
    14:00 +38°C° 0 mm 7 m/s 759 mmHg 35%
    15:00 +38°C° 0 mm 7 m/s 759 mmHg 35%
    16:00 +36°C° 0 mm 6 m/s 759 mmHg 35%
    17:00 +35°C° 0 mm 6 m/s 759 mmHg 35%
    18:00 +35°C° 0 mm 5 m/s 759 mmHg 36%
    19:00 +33°C° 0 mm 4 m/s 760 mmHg 43%
    20:00 +31°C° 0 mm 3 m/s 760 mmHg 49%
    21:00 +29°C° 0 mm 2 m/s 760 mmHg 56%
    22:00 +29°C° 0 mm 2 m/s 760 mmHg 59%
    23:00 +29°C° 0 mm 2 m/s 760 mmHg 62%

    Mâine, 26 Iunie, Miercuri

    Timp Temperatura Precipitaţii Vânt Presiune Umiditate
    00:00 +28°C° 0 mm 2 m/s 760 mmHg 66%
    01:00 +28°C° 0 mm 1 m/s 760 mmHg 67%
    02:00 +27°C° 0 mm 1 m/s 760 mmHg 68%
    03:00 +27°C° 0 mm 1 m/s 760 mmHg 69%
    04:00 +28°C° 0 mm 1 m/s 760 mmHg 66%
    05:00 +29°C° 0 mm 2 m/s 760 mmHg 62%
    06:00 +29°C° 0 mm 2 m/s 760 mmHg 59%
    07:00 +31°C° 0 mm 3 m/s 761 mmHg 53%
    08:00 +34°C° 0 mm 3 m/s 761 mmHg 48%
    09:00 +36°C° 0 mm 4 m/s 761 mmHg 43%
    10:00 +36°C° 0 mm 5 m/s 761 mmHg 43%
    11:00 +36°C° 0 mm 6 m/s 761 mmHg 43%
    12:00 +38°C° 0 mm 7 m/s 761 mmHg 43%
    13:00 +36°C° 0 mm 7 m/s 760 mmHg 45%
    14:00 +36°C° 0 mm 7 m/s 760 mmHg 46%
    15:00 +37°C° 0 mm 8 m/s 760 mmHg 47%
    16:00 +35°C° 0 mm 7 m/s 760 mmHg 50%
    17:00 +34°C° 0 mm 7 m/s 760 mmHg 52%
    18:00 +33°C° 0 mm 7 m/s 760 mmHg 55%
    19:00 +32°C° 0 mm 7 m/s 760 mmHg 58%
    20:00 +30°C° 0 mm 6 m/s 760 mmHg 62%
    21:00 +29°C° 0 mm 6 m/s 761 mmHg 65%
    22:00 +28°C° 0 mm 5 m/s 761 mmHg 66%
    23:00 +28°C° 0 mm 5 m/s 761 mmHg 67%

    Poimâine, 27 Iunie, Joi

    Timp Temperatura Precipitaţii Vânt Presiune Umiditate
    00:00 +28°C° 0 mm 4 m/s 760 mmHg 68%
    01:00 +27°C° 0 mm 4 m/s 760 mmHg 69%
    02:00 +27°C° 0 mm 3 m/s 761 mmHg 70%
    03:00 +27°C° 0 mm 3 m/s 761 mmHg 71%
    04:00 +27°C° 0 mm 3 m/s 761 mmHg 69%
    05:00 +28°C° 0 mm 4 m/s 761 mmHg 66%
    06:00 +28°C° 0 mm 4 m/s 761 mmHg 64%
    07:00 +29°C° 0 mm 5 m/s 761 mmHg 58%
    08:00 +30°C° 0 mm 5 m/s 761 mmHg 51%
    09:00 +32°C° 0 mm 6 m/s 761 mmHg 45%
    10:00 +32°C° 0 mm 6 m/s 760 mmHg 44%
    11:00 +33°C° 0 mm 6 m/s 760 mmHg 43%
    12:00 +33°C° 0 mm 6 m/s 759 mmHg 42%
    13:00 +33°C° 0 mm 6 m/s 759 mmHg 42%
    14:00 +33°C° 0 mm 6 m/s 759 mmHg 42%
    15:00 +33°C° 0 mm 6 m/s 758 mmHg 42%
    16:00 +32°C° 0 mm 6 m/s 758 mmHg 42%
    17:00 +30°C° 0 mm 6 m/s 758 mmHg 43%
    18:00 +29°C° 0 mm 5 m/s 758 mmHg 44%
    19:00 +29°C° 0 mm 4 m/s 758 mmHg 47%
    20:00 +28°C° 0 mm 3 m/s 758 mmHg 51%
    21:00 +27°C° 0 mm 3 m/s 758 mmHg 54%
    22:00 +27°C° 0 mm 2 m/s 758 mmHg 55%
    23:00 +26°C° 0 mm 1 m/s 758 mmHg 55%

    28 Iunie, Vineri

    Timp Temperatura Precipitaţii Vânt Presiune Umiditate
    00:00 +26°C° 0 mm 1 m/s 758 mmHg 55%
    01:00 +26°C° 0 mm 1 m/s 757 mmHg 56%
    02:00 +26°C° 0 mm 1 m/s 757 mmHg 56%
    03:00 +26°C° 0 mm 1 m/s 757 mmHg 57%
    04:00 +26°C° 0.1 mm 1 m/s 757 mmHg 57%
    05:00 +26°C° 0.1 mm 1 m/s 756 mmHg 57%
    06:00 +26°C° 0.1 mm 1 m/s 756 mmHg 57%
    07:00 +28°C° 0.1 mm 1 m/s 756 mmHg 51%
    08:00 +29°C° 0.1 mm 1 m/s 756 mmHg 45%
    09:00 +30°C° 0.1 mm 1 m/s 755 mmHg 39%
    10:00 +31°C° 0 mm 2 m/s 755 mmHg 37%
    11:00 +32°C° 0 mm 2 m/s 755 mmHg 36%
    12:00 +33°C° 0 mm 3 m/s 754 mmHg 34%
    13:00 +34°C° 0 mm 3 m/s 754 mmHg 33%
    14:00 +34°C° 0 mm 4 m/s 753 mmHg 33%
    15:00 +34°C° 0 mm 4 m/s 753 mmHg 32%
    16:00 +33°C° 0 mm 4 m/s 752 mmHg 35%
    17:00 +31°C° 0 mm 3 m/s 752 mmHg 38%
    18:00 +30°C° 0 mm 3 m/s 752 mmHg 41%
    19:00 +29°C° 0.1 mm 3 m/s 753 mmHg 45%
    20:00 +29°C° 0.1 mm 3 m/s 753 mmHg 50%
    21:00 +28°C° 0.1 mm 3 m/s 754 mmHg 54%
    22:00 +27°C° 0.1 mm 3 m/s 753 mmHg 54%
    23:00 +27°C° 0.1 mm 2 m/s 753 mmHg 54%

    29 Iunie, Sâmbătă

    Timp Temperatura Precipitaţii Vânt Presiune Umiditate
    00:00 +27°C° 0.1 mm 2 m/s 753 mmHg 54%
    01:00 +27°C° 0.1 mm 2 m/s 753 mmHg 54%
    02:00 +26°C° 0.1 mm 1 m/s 753 mmHg 54%
    03:00 +26°C° 0.1 mm 1 m/s 753 mmHg 54%
    04:00 +27°C° 0 mm 1 m/s 753 mmHg 51%
    05:00 +27°C° 0 mm 1 m/s 753 mmHg 47%
    06:00 +28°C° 0 mm 1 m/s 753 mmHg 44%
    07:00 +30°C° 0 mm 1 m/s 753 mmHg 41%
    08:00 +31°C° 0 mm 1 m/s 753 mmHg 38%
    09:00 +32°C° 0 mm 1 m/s 753 mmHg 35%
    10:00 +34°C° 0 mm 2 m/s 753 mmHg 34%
    11:00 +35°C° 0 mm 3 m/s 753 mmHg 34%
    12:00 +35°C° 0 mm 3 m/s 752 mmHg 33%
    13:00 +35°C° 0 mm 4 m/s 752 mmHg 35%
    14:00 +35°C° 0 mm 4 m/s 752 mmHg 36%
    15:00 +35°C° 0 mm 5 m/s 751 mmHg 37%
    16:00 +34°C° 0 mm 4 m/s 751 mmHg 41%
    17:00 +33°C° 0 mm 4 m/s 751 mmHg 44%
    18:00 +32°C° 0 mm 4 m/s 752 mmHg 47%
    19:00 +30°C° 0 mm 3 m/s 752 mmHg 51%
    20:00 +29°C° 0 mm 3 m/s 753 mmHg 55%
    21:00 +28°C° 0 mm 3 m/s 753 mmHg 60%
    22:00 +28°C° 0 mm 3 m/s 753 mmHg 61%
    23:00 +28°C° 0 mm 3 m/s 754 mmHg 62%

    30 Iunie, Duminică

    Timp Temperatura Precipitaţii Vânt Presiune Umiditate
    00:00 +27°C° 0 mm 3 m/s 754 mmHg 63%
    01:00 +27°C° 0 mm 5 m/s 754 mmHg 66%
    02:00 +27°C° 0 mm 6 m/s 754 mmHg 68%
    03:00 +27°C° 0 mm 8 m/s 754 mmHg 70%
    04:00 +27°C° 0 mm 7 m/s 755 mmHg 68%
    05:00 +27°C° 0 mm 7 m/s 755 mmHg 66%
    06:00 +28°C° 0 mm 6 m/s 755 mmHg 64%
    07:00 +28°C° 0 mm 6 m/s 755 mmHg 61%
    08:00 +29°C° 0 mm 5 m/s 755 mmHg 58%
    09:00 +30°C° 0 mm 5 m/s 755 mmHg 55%
    10:00 +30°C° 0 mm 5 m/s 755 mmHg 55%
    11:00 +32°C° 0 mm 5 m/s 755 mmHg 55%
    12:00 +32°C° 0 mm 5 m/s 755 mmHg 54%
    13:00 +32°C° 0 mm 5 m/s 754 mmHg 56%
    14:00 +32°C° 0 mm 6 m/s 754 mmHg 57%
    15:00 +30°C° 0 mm 6 m/s 753 mmHg 58%
    16:00 +30°C° 0 mm 5 m/s 754 mmHg 62%
    17:00 +29°C° 0 mm 5 m/s 754 mmHg 66%
    18:00 +28°C° 0 mm 5 m/s 754 mmHg 69%
    19:00 +28°C° 0.1 mm 5 m/s 754 mmHg 72%
    20:00 +27°C° 0.1 mm 4 m/s 755 mmHg 75%
    21:00 +27°C° 0.1 mm 4 m/s 756 mmHg 77%
    22:00 +27°C° 0.1 mm 5 m/s 756 mmHg 78%
    23:00 +27°C° 0.1 mm 5 m/s 756 mmHg 78%
    Arată mai mult